Time,TemperatureF,DewpointF,PressureIn,WindDirection,WindDirectionDegrees,WindSpeedMPH,WindSpeedGustMPH,Humidity,HourlyPrecipIn,Conditions,Clouds,dailyrainin,SoftwareType,DateUTC
2013-07-22 00:10:00,75.0,49.0,-100.00,WNW,290,6.0,12.0,39,-99.99,,,-99.99,,2013-07-22 07:10:00,
2013-07-22 02:02:00,71.0,46.0,-100.00,West,265,8.0,12.0,40,-99.99,,,-99.99,,2013-07-22 09:02:00,
2013-07-22 02:10:00,70.0,46.0,-100.00,WNW,295,6.0,12.0,42,-99.99,,,-99.99,,2013-07-22 09:10:00,
2013-07-22 02:11:00,71.0,46.0,-100.00,West,265,8.0,12.0,40,-99.99,,,-99.99,,2013-07-22 09:11:00,
2013-07-22 04:11:00,67.0,45.0,-100.00,West,280,7.0,10.0,45,-99.99,,,-99.99,,2013-07-22 11:11:00,
2013-07-22 05:10:00,65.0,46.0,-100.00,WNW,295,6.0,9.0,50,-99.99,,,-99.99,,2013-07-22 12:10:00,
2013-07-22 07:10:00,65.0,48.0,-100.00,NW,310,6.0,10.0,54,-99.99,,,-99.99,,2013-07-22 14:10:00,
2013-07-22 07:11:00,62.0,46.0,-100.00,WNW,300,7.0,13.0,55,-99.99,,,-99.99,,2013-07-22 14:11:00,
2013-07-22 09:11:00,72.0,53.0,-100.00,WNW,290,6.0,9.0,51,-99.99,,,-99.99,,2013-07-22 16:11:00,
2013-07-22 09:20:00,78.0,55.0,-100.00,WNW,295,7.0,10.0,45,-99.99,,,-99.99,,2013-07-22 16:20:00,
2013-07-22 10:01:00,78.0,55.0,-100.00,WNW,295,7.0,10.0,45,-99.99,,,-99.99,,2013-07-22 17:01:00,
2013-07-22 10:10:00,83.0,56.0,-100.00,WNW,295,5.0,13.0,39,-99.99,,,-99.99,,2013-07-22 17:10:00,
2013-07-22 10:11:00,78.0,55.0,-100.00,WNW,295,7.0,10.0,45,-99.99,,,-99.99,,2013-07-22 17:11:00,
2013-07-22 20:01:00,90.0,55.0,-100.00,North,355,5.0,7.0,30,-99.99,,,-99.99,,2013-07-23 03:01:00,
2013-07-22 20:10:00,83.0,52.0,-100.00,NW,320,5.0,10.0,34,-99.99,,,-99.99,,2013-07-23 03:10:00,
2013-07-22 20:11:00,90.0,55.0,-100.00,North,355,5.0,7.0,30,-99.99,,,-99.99,,2013-07-23 03:11:00,
2013-07-22 21:01:00,83.0,52.0,-100.00,NW,320,5.0,10.0,34,-99.99,,,-99.99,,2013-07-23 04:01:00,
2013-07-22 22:11:00,77.0,53.0,-100.00,North,5,3.0,6.0,43,-99.99,,,-99.99,,2013-07-23 05:11:00,
2013-07-22 22:20:00,78.0,54.0,-100.00,NW,315,5.0,9.0,43,-99.99,,,-99.99,,2013-07-23 05:20:00,
2013-07-22 23:10:00,73.0,53.0,-100.00,NNW,330,2.0,5.0,49,-99.99,,,-99.99,,2013-07-23 06:10:00,
2013-07-22 23:11:00,78.0,54.0,-100.00,NW,315,5.0,9.0,43,-99.99,,,-99.99,,2013-07-23 06:11:00,